This is the latest recevied weather packets stored in our database for station/object N3MFL. If no packets are shown the sender has not sent any weather packets the latest 10 day(s).
| Time | Temp. | Humidity | Pressure | Rain* | Wind** | Luminosity | Snow |
|---|---|---|---|---|---|---|---|
| 1777913827 | 20° C | 31% | 1010.2 hPa | 0 mm | - | 204 W/m² | - |
| 1777913523 | 20° C | 30% | 1010.3 hPa | 0 mm | - | 214 W/m² | - |
| 1777913220 | 20° C | 32% | 1010.6 hPa | 0 mm | - | 164 W/m² | - |
| 1777912916 | 20° C | 33% | 1010.5 hPa | 0 mm | - | 453 W/m² | - |
| 1777912613 | 20.56° C | 31% | 1010.5 hPa | 0 mm | - | 215 W/m² | - |
| 1777912309 | 20.56° C | 34% | 1010.4 hPa | 0 mm | - | 232 W/m² | - |
| 1777912005 | 20° C | 32% | 1010.5 hPa | 0 mm | - | 573 W/m² | - |
| 1777911701 | 19.44° C | 33% | 1010.5 hPa | 0 mm | - | 512 W/m² | - |
| 1777911398 | 19.44° C | 32% | 1010.8 hPa | 0 mm | - | 690 W/m² | - |
| 1777911096 | 20° C | 33% | 1011 hPa | 0 mm | - | 723 W/m² | - |
| 1777910793 | 20° C | 32% | 1010.8 hPa | 0 mm | - | 721 W/m² | - |
| 1777910489 | 20° C | 34% | 1010.9 hPa | 0 mm | - | 706 W/m² | - |
| 1777910186 | 20° C | 33% | 1010.6 hPa | 0 mm | - | 717 W/m² | - |
| 1777909883 | 19.44° C | 33% | 1011.1 hPa | 0 mm | - | 703 W/m² | - |
| 1777909580 | 19.44° C | 37% | 1011.2 hPa | 0 mm | - | 690 W/m² | - |
| 1777909277 | 19.44° C | 34% | 1011.1 hPa | 0 mm | - | 708 W/m² | - |
| 1777908975 | 18.89° C | 34% | 1011.5 hPa | 0 mm | - | 695 W/m² | - |
| 1777908674 | 18.89° C | 36% | 1011.2 hPa | 0 mm | - | 689 W/m² | - |
| 1777908370 | 18.89° C | 34% | 1011.5 hPa | 0 mm | - | 683 W/m² | - |
| 1777908066 | 18.89° C | 36% | 1011.3 hPa | 0 mm | - | 679 W/m² | - |
| 1777907762 | 18.89° C | 34% | 1011.3 hPa | 0 mm | - | 673 W/m² | - |
| 1777907456 | 18.89° C | 37% | 1011.4 hPa | 0 mm | - | 665 W/m² | - |
| 1777907154 | 18.33° C | 36% | 1011.6 hPa | 0 mm | - | 656 W/m² | - |
| 1777906851 | 18.33° C | 36% | 1011.6 hPa | 0 mm | - | 648 W/m² | - |
| 1777906549 | 18.33° C | 36% | 1011.5 hPa | 0 mm | - | 639 W/m² | - |
* Rain latest hour (hover to see other rain measurements)
** Current wind speed in m/s (hover to see current wind gust speed)